Location: Ronnenberg
(52.3188°N, 9.6550°E)
Time: 18:50:09
(UTC+00:00)

Daily predictions for brighter satellites

Satellite Brightness Start Highest point End
(mag) Time Altitude Azimuth Time Altitude Azimuth Time Altitude Azimuth
Cosmos 2173 Rocket 4.1 15:51:33 10° S 15:57:45 85° WNW 16:03:55 10° N
Cosmos 921 Rocket 3.1 15:55:17 10° SSW 15:59:40 89° ESE 16:04:09 10° NNE
Cosmos 2278 Rocket 3.4 15:56:48 10° SSE 16:01:08 23° ESE 16:05:29 10° NE
Cosmos 1441 Rocket 3.3 16:02:52 10° NNW 16:06:12 65° W 16:09:32 10° S
Cosmos 1908 Rocket 3.6 16:03:47 10° S 16:08:14 89° W 16:12:42 10° N
MOS 1 Rocket 4.1 16:04:43 10° ESE 16:08:19 25° ENE 16:12:04 10° N
Cosmos 1975 Rocket 3.2 16:05:08 10° N 16:09:24 52° ENE 16:13:40 10° SSE
USA 215 3.4 16:04:38 10° ESE 16:11:12 82° SSW 16:17:47 10° WNW
SL-08 R/B 4.5 16:05:12 10° S 16:11:13 67° E 16:17:16 10° NNE
ARIANE 5 R/B 2.7 16:07:13 10° SE 16:11:59 49° ENE 16:16:50 10° N
ATLAS 5 CENTAUR R/B 2.8 16:08:10 10° NW 16:12:19 49° SW 16:17:24 10° SSE
Cosmos 2263 Rocket 4.3 16:13:20 10° WNW 16:16:41 16° NNW 16:20:05 10° NNE
Cosmos 2344 4.0 16:10:15 10° NW 16:17:24 48° NNE 16:26:16 10° E
Cosmos 1844 Rocket 4.0 16:12:57 10° WSW 16:17:59 34° NW 16:23:05 10° NNE
Cosmos 1802 Rocket 4.2 16:12:35 10° S 16:19:02 84° W 16:25:30 10° N
ARIANE 6 FM1 Upper Stage 4.1 16:16:54 10° WNW 16:20:18 26° NNW 16:23:42 10° NE
Cosmos 1862 4.5 16:17:51 10° NNE 16:20:26 18° ENE 16:23:01 10° ESE
Iridium 4 Rocket 3.7 16:15:39 10° SSW 16:20:35 68° W 16:25:08 10° N
SAR-Lupe-4 3.7 16:17:30 10° SSE 16:20:59 52° ENE 16:24:29 10° N
ISS -2.4 16:25:35 10° SSW 16:28:30 28° SSE 16:30:57 13° E
Cosmos 1833 Rocket 3.9 16:23:55 10° NW 16:29:20 47° WSW 16:34:42 10° S
USA 281 4.4 16:24:36 10° E 16:29:24 23° NNE 16:34:17 10° NNW
COSMOS 2406 3.8 16:24:14 10° NNW 16:29:28 36° NE 16:34:41 10° ESE
CZ-2D R/B 2.8 16:27:11 10° SSE 16:30:14 50° ENE 16:33:20 10° N
Cosmos 407 Rocket 3.9 16:26:43 10° S 16:31:35 43° ESE 16:36:26 10° NE
Cosmos 1484 Rocket 4.0 16:29:09 10° S 16:32:30 41° W 16:35:54 10° NNW
Cosmos 2016 Rocket 4.2 16:26:37 10° SSW 16:32:57 79° WNW 16:39:22 10° N
Cosmos 1812 3.3 16:31:13 10° SE 16:33:28 21° E 16:34:33 17° ENE
Tsikada Rocket 4.3 16:28:04 10° NNW 16:34:30 79° W 16:40:51 10° S
IRS-P3 4.2 16:30:16 10° SE 16:35:28 57° ENE 16:40:42 10° N
TIMED 4.4 16:31:29 10° SSW 16:35:42 67° ESE 16:39:57 10° NNE
Cosmos 2084 Rocket 3.6 16:36:21 10° WSW 16:40:31 67° NW 16:44:07 14° NE
ERS-1 4.5 16:35:33 10° SSE 16:40:39 70° ENE 16:45:45 10° NNW
SMAP 3.2 16:37:58 10° SSE 16:42:38 83° WSW 16:47:19 10° NNW
Cosmos 540 Rocket 3.4 16:38:47 10° NNW 16:43:58 88° ENE 16:49:05 10° SSE
Cosmos 44 Rocket 4.0 16:40:04 10° S 16:44:25 36° ESE 16:47:38 17° ENE
SJ 16-02 2.6 16:43:32 10° SSE 16:46:45 21° E 16:47:54 19° ENE
SPOT 1/Viking Rocket 3.8 16:42:29 10° SE 16:47:23 44° ENE 16:52:18 10° N
Cosmos 1869 3.0 16:45:00 10° S 16:48:26 56° E 16:51:53 10° NNE
Cosmos 2297 Rocket 4.3 16:46:37 10° NNW 16:48:31 12° N 16:50:25 10° NNE
YAOGAN 1 3.3 16:45:30 10° SE 16:49:13 30° ENE 16:52:57 10° N
SL-16 R/B 3.0 16:45:30 10° NNE 16:51:43 66° WNW 16:57:53 10° SSW
Cosmos 1763 Rocket 3.8 16:47:10 10° NNW 16:52:23 71° WSW 16:57:30 10° SSE
Meteor 2-3 Rocket 4.4 16:48:04 10° N 16:53:08 31° ENE 16:58:06 10° SE
Landsat 7 3.8 16:50:07 10° SSE 16:54:47 87° W 16:59:29 10° NNW
Nadezhda 4 Rocket 4.1 16:51:29 10° N 16:57:38 51° ENE 17:03:40 10° SSE
RESURS DK-1 3.1 16:54:17 10° NW 16:58:13 53° WSW 17:02:06 10° SSE
Spot 4 Rocket 4.2 16:53:29 10° SE 16:58:20 46° ENE 17:03:12 10° N
Cosmos 1140 Rocket 3.8 16:55:28 10° SW 17:00:38 67° WNW 17:05:46 10° NNE
Aureole 3 Rocket 2.4 16:58:29 10° S 17:01:25 48° E 17:03:44 17° NNE
CZ-4C R/B 3.3 16:57:44 10° W 17:02:18 35° NNW 17:06:52 15° NE
Resurs 1-3 4.0 16:59:31 10° SE 17:03:30 38° ENE 17:07:30 10° N
UNK 3.9 17:00:13 10° NNE 17:04:50 74° WNW 17:09:25 10° SSW
CZ-4 R/B 4.3 17:02:42 10° SSE 17:06:37 62° ENE 17:10:33 10° N
SJ-6F 4.3 17:02:46 10° SSE 17:06:41 87° W 17:10:38 10° NNW
Cosmos 1400 Rocket 3.3 17:07:28 10° SSE 17:10:55 33° E 17:11:08 33° E
SJ-12 4.4 17:07:27 10° S 17:11:11 56° W 17:14:56 10° NNW
Cosmos 371 Rocket 4.1 17:07:12 10° SSE 17:11:18 29° ESE 17:12:04 27° E
Cosmos 1536 Rocket 3.5 17:06:54 10° N 17:11:19 60° ENE 17:15:41 10° SSE
SAR-Lupe-3 3.7 17:13:47 34° N 17:14:47 82° WNW 17:17:24 10° SSW
Helios 1A Rocket 4.3 17:16:48 17° SE 17:16:48 17° SE 17:17:55 10° SSE
Cosmos 489 Rocket 4.4 17:11:55 10° NNW 17:18:14 75° ENE 17:24:26 10° SSE
Okean 2 Rocket 3.4 17:14:10 10° SSE 17:18:16 41° E 17:20:03 27° NE
CARTOSAT-1 4.4 17:22:06 30° NE 17:22:06 30° NE 17:25:09 10° N
ATLAS CENTAUR R/B 3.2 17:24:21 10° NW 17:26:24 15° NNW 17:27:35 13° N
NOAA 6 4.1 17:21:32 10° SE 17:26:30 52° ENE 17:31:29 10° N
COSMO-SKYMED 1 2.8 17:26:49 41° E 17:26:54 41° E 17:30:48 10° S
SL-12 R/B(2) 4.4 17:19:37 10° SW 17:27:45 82° SE 17:35:47 18° NE
Geosat 4.1 17:25:22 27° ESE 17:27:52 53° NE 17:32:45 10° NNW
Resurs 01 Rocket 2.7 17:30:11 27° NNE 17:30:11 27° NNE 17:32:54 10° N
Cosmos 1943 Rocket 2.1 17:25:30 10° SSW 17:31:07 86° WNW 17:35:17 19° NNE
Timation 2 Rocket 4.2 17:25:40 10° SSW 17:32:35 85° NW 17:38:22 15° NNE
Cosmos 841 Rocket 3.4 17:27:55 10° NNW 17:33:13 77° ENE 17:38:28 10° SSE
Cosmos 2058 3.3 17:29:20 10° NNW 17:33:15 61° W 17:37:11 10° S
Cosmos 2251 Rocket 3.4 17:29:48 10° SSW 17:35:04 78° ESE 17:38:36 22° NNE
SJ-7 4.0 17:33:01 10° SSE 17:36:42 85° ENE 17:40:25 10° NNW
Cosmos 2227 Rocket 4.3 17:35:18 10° NNW 17:37:10 11° N 17:38:42 10° NNE
BREEZE-M DEB (TANK) 2.9 17:35:32 10° WSW 17:38:18 53° SSE 17:39:49 37° ESE
Cosmos 2082 Rocket 2.8 17:32:51 10° NW 17:38:21 58° WSW 17:43:50 10° S
ATLAS 2AS CENTAUR R/B 2.8 17:32:53 10° NW 17:39:35 56° NNE 17:42:14 35° E
Cosmos 1346 Rocket 3.5 17:36:18 10° N 17:38:39 34° NNE 17:38:39 34° NNE
IRAS Rocket 4.2 17:38:14 10° SSE 17:43:47 83° WSW 17:49:21 10° NNW
Cosmos 2278 Rocket 2.3 17:39:00 10° SW 17:44:39 75° WNW 17:48:33 21° NNE
MOS 1 Rocket 4.2 17:41:56 10° S 17:46:07 47° W 17:50:33 10° NNW
Cosmos 1464 Rocket 3.9 17:44:40 10° S 17:50:58 88° W 17:57:14 10° N
CZ-2D R/B 4.1 17:47:44 10° S 17:51:49 56° W 17:56:00 10° NNW
Meteor 2-1 Rocket 4.3 17:46:52 10° S 17:52:39 58° E 17:57:32 15° NNE
Cosmos 2369 Rocket 4.3 17:49:44 10° SSE 17:50:09 12° SSE 17:50:09 12° SSE
Cosmos 1862 4.2 17:52:11 10° NNW 17:55:40 44° W 17:59:07 10° SSW
PSLV R/B 3.7 17:53:34 10° S 17:57:35 66° WSW 18:01:37 10° NNW
ARIANE 6 FM1 Upper Stage 4.4 17:57:24 10° NW 17:59:56 20° N 17:59:56 20° N
Cosmos 2151 Rocket 3.9 17:57:05 10° SSW 18:01:32 65° WNW 18:05:04 16° N
Cosmos 1190 Rocket 4.1 17:57:36 10° SSW 18:02:55 78° WNW 18:05:27 32° NNE
Cosmos 2263 Rocket 4.4 18:01:27 10° NNW 18:03:11 11° N 18:04:12 11° NNE
Cosmos 2034 Rocket 3.8 17:58:41 10° S 18:04:53 82° E 18:11:13 10° NNE
ISS -2.4 18:01:39 10° WSW 18:03:52 38° WSW 18:03:52 38° WSW
Cosmos 1812 4.4 18:03:30 10° SW 18:05:51 22° WNW 18:06:21 21° NW
Cosmos 676 Rocket 3.9 18:00:42 10° SSW 18:05:59 75° ESE 18:06:43 64° NE
SKYMED 2 4.0 18:03:52 23° N 18:06:26 62° WNW 18:10:43 10° SSW
Okean 1 Rocket 3.0 18:03:46 10° SSW 18:08:11 82° W 18:08:25 78° NNW
Cosmos 1656 Rocket 3.8 18:03:16 10° S 18:08:00 52° SE 18:08:00 52° SE
Cosmos 220 Rocket 4.2 18:07:45 10° NNW 18:11:16 62° NW 18:11:16 62° NW
USA 281 3.1 18:11:29 52° ESE 18:12:54 64° NE 18:19:26 10° NNW
Sich 1 Rocket 3.8 18:09:25 10° SSW 18:13:57 73° WNW 18:14:56 53° NNW
COSMOS 2406 3.8 18:08:28 10° NW 18:14:02 56° WSW 18:19:01 13° S
Cosmos 1954 Rocket 4.1 18:10:04 10° SSW 18:15:20 75° WNW 18:16:53 46° N
Cosmos 1092 Rocket 3.9 18:09:24 10° N 18:15:44 87° E 18:21:55 10° S
Cosmos 1932 4.4 18:09:49 10° SSW 18:16:05 61° SE 18:16:22 60° ESE
Cosmos 2026 Rocket 4.0 18:14:36 10° NNW 18:20:43 79° W 18:26:51 10° S
SJ 16-02 1.9 18:20:19 10° SW 18:24:29 53° WNW 18:24:29 53° WNW
YAOGAN 1 4.0 18:21:04 10° SSW 18:25:00 36° W 18:28:58 10° NNW
Cosmos 44 Rocket 3.9 18:21:01 10° WSW 18:25:44 51° NW 18:26:14 49° NNW
Cosmos 2344 4.0 18:24:35 10° NW 18:32:25 74° SW 18:38:34 27° SSE
Cosmos 2297 Rocket 4.1 18:30:48 10° NNW 18:33:09 18° N 18:33:09 18° N
Meteor 2-3 Rocket 4.4 18:31:04 10° NNW 18:36:37 53° W 18:42:03 10° S
Cosmos 371 Rocket 4.3 18:46:41 10° SW 18:50:35 43° W 18:50:35 43° W
CZ-4C R/B 3.6 18:47:07 10° NW 18:51:49 31° N 18:51:49 31° N
Resurs 01 Rocket 3.8 19:07:36 21° NW 19:07:36 21° NW 19:09:24 10° NNW
Cosmos 1943 Rocket 4.0 19:11:10 10° W 19:15:40 24° NW 19:16:48 23° NNW
Cosmos 2278 Rocket 4.2 19:25:20 10° W 19:29:42 22° NW 19:30:23 22° NNW
ATLAS 2AS CENTAUR R/B 3.4 19:24:00 10° NW 19:29:41 48° W 19:29:41 48° W
